Date String (YYYY-MM-DD hh:mm:ss) UTC,Instrument flags,Ambient pressure (hPa),Sample flow (lpm),Bypass flow (lpm),Sample temperature (°C),Ambient temperature (°C),ASC tube jacket temperature (°C),LED temperature (°C),Box temperature (°C),Sample RH (%),Span deviation,Mass concentration (μg/m³),Mass concentration (μg/m³),Mass concentration (μg/m³)
DateTimeUTC,F1_M11,P_M11,Q1_M11,Q2_M11,T1_M11,T2_M11,T3_M11,T4_M11,T5_M11,U1_M11,ZSPAN_M11,X0_M11,X2_M11,X1_M11
2023-05-09 21:00:00,,0827.7,5.00,0.00,29.7,28.0,00.0,38.1,31.4,18.6,0002.0,0024.41,0007.97,0006.02
2023-05-09 21:01:00,,0827.7,4.99,0.00,29.7,28.1,00.0,38.1,31.4,18.4,0001.9,0025.25,0007.92,0006.00
2023-05-09 21:02:00,,0827.7,4.99,0.00,29.8,28.3,00.0,38.1,31.5,18.2,0002.7,0025.48,0007.80,0005.97
2023-05-09 21:03:00,,0827.6,5.01,0.00,29.8,28.4,00.0,38.1,31.5,18.4,0002.7,0027.08,0007.77,0005.96
2023-05-09 21:04:00,,0827.5,4.99,0.00,29.8,28.5,00.0,38.1,31.6,19.0,0002.4,0028.16,0007.74,0005.92
2023-05-09 21:05:00,,0827.5,4.99,0.00,29.8,28.5,00.0,38.1,31.6,18.6,0002.9,0028.42,0007.81,0005.92
2023-05-09 21:06:00,,0827.5,5.00,0.00,29.9,28.6,00.0,38.2,31.6,18.4,0002.9,0028.58,0007.89,0005.96
2023-05-09 21:07:00,,0827.5,5.00,0.00,29.9,28.7,00.0,38.2,31.7,18.5,0003.5,0028.68,0007.89,0005.95
2023-05-09 21:08:00,,0827.6,5.01,0.00,29.9,28.8,00.0,38.2,31.7,18.4,0003.8,0029.23,0007.89,0005.95
2023-05-09 21:09:00,,0827.6,5.00,0.00,30.0,28.8,00.0,38.2,31.8,18.3,0003.0,0028.65,0007.82,0005.94
2023-05-09 21:10:00,,0827.8,4.99,0.00,30.0,28.9,00.0,38.3,31.8,18.1,0001.9,0029.57,0007.88,0005.96
2023-05-09 21:11:00,,0827.8,4.99,0.00,30.0,27.9,00.0,38.2,31.7,18.3,0001.6,0030.81,0007.92,0005.98
2023-05-09 21:12:00,,0827.5,5.00,0.00,30.0,26.4,00.0,38.2,31.4,18.7,0001.5,0028.90,0007.99,0006.02
2023-05-09 21:13:00,,0827.4,5.00,0.00,29.9,26.2,00.0,38.1,31.3,18.2,0001.5,0028.61,0008.13,0006.07
2023-05-09 21:14:00,,0827.3,5.01,0.00,29.8,26.4,00.0,38.1,31.3,18.3,0001.2,0027.71,0008.23,0006.11
2023-05-09 21:15:00,,0827.4,5.01,0.00,29.8,26.7,00.0,38.1,31.3,18.1,0001.6,0026.59,0008.32,0006.14
2023-05-09 21:16:00,,0827.4,5.00,0.00,29.8,27.1,00.0,38.1,31.4,18.2,0001.7,0025.92,0008.34,0006.18
2023-05-09 21:17:00,,0827.4,5.00,0.00,29.8,27.4,00.0,38.2,31.4,18.1,0001.6,0026.02,0008.39,0006.19
2023-05-09 21:18:00,,0827.4,5.00,0.00,29.8,27.6,00.0,38.2,31.4,18.3,0002.0,0026.16,0008.46,0006.23
2023-05-09 21:19:00,,0827.3,5.00,0.00,29.8,27.8,00.0,38.2,31.5,18.3,0002.0,0025.54,0008.52,0006.28
2023-05-09 21:20:00,,0827.4,4.99,0.00,29.8,28.0,00.0,38.2,31.5,18.4,0002.6,0026.65,0008.61,0006.31
2023-05-09 21:21:00,,0827.4,5.00,0.00,29.9,28.2,00.0,38.2,31.6,18.2,0003.0,0026.03,0008.73,0006.37
2023-05-09 21:22:00,,0827.4,5.01,0.00,29.9,28.3,00.0,38.2,31.6,18.2,0003.3,0024.67,0008.82,0006.40
2023-05-09 21:23:00,,0827.4,5.00,0.00,29.9,28.4,00.0,38.2,31.6,18.5,0003.1,0025.66,0008.82,0006.41
2023-05-09 21:24:00,,0827.4,4.99,0.00,29.9,28.5,00.0,38.2,31.7,18.5,0002.7,0025.89,0008.77,0006.43
2023-05-09 21:25:00,,0827.4,5.01,0.00,30.0,28.6,00.0,38.2,31.7,18.5,0002.9,0026.36,0008.78,0006.44
2023-05-09 21:26:00,,0827.4,5.01,0.00,30.0,28.4,00.0,38.2,31.7,18.6,0003.2,0026.88,0008.76,0006.46
2023-05-09 21:27:00,,0827.4,4.99,0.00,30.0,26.9,00.0,38.2,31.5,18.4,0003.0,0027.30,0008.74,0006.47
2023-05-09 21:28:00,,0827.4,5.00,0.00,29.9,26.2,00.0,38.1,31.3,18.4,0003.1,0028.68,0008.66,0006.47
2023-05-09 21:29:00,,0827.4,5.01,0.00,29.9,26.3,00.0,38.1,31.2,18.4,0003.0,0028.89,0008.61,0006.47
2023-05-09 21:30:00,,0827.4,5.01,0.00,29.8,26.6,00.0,38.1,31.3,18.5,0002.9,0028.32,0008.54,0006.45
2023-05-09 21:31:00,,0827.4,5.00,0.00,29.8,26.9,00.0,38.1,31.3,18.4,0002.5,0026.95,0008.48,0006.44
2023-05-09 21:32:00,,0827.4,5.00,0.00,29.8,27.2,00.0,38.1,31.4,18.4,0002.4,0026.68,0008.50,0006.46
2023-05-09 21:33:00,,0827.4,5.00,0.00,29.8,27.5,00.0,38.1,31.4,18.4,0002.0,0027.72,0008.52,0006.49
2023-05-09 21:34:00,,0827.4,5.00,0.00,29.8,27.7,00.0,38.1,31.4,18.6,0002.4,0029.08,0008.56,0006.53
2023-05-09 21:35:00,,0827.4,4.98,0.00,29.8,27.9,00.0,38.1,31.5,18.6,0002.8,0028.62,0008.58,0006.55
2023-05-09 21:36:00,,0827.4,5.01,0.00,29.8,28.1,00.0,38.1,31.5,18.7,0003.2,0028.70,0008.53,0006.54
2023-05-09 21:37:00,,0827.4,5.01,0.00,29.8,28.2,00.0,38.2,31.6,18.4,0003.1,0028.54,0008.51,0006.52
2023-05-09 21:38:00,,0827.4,5.00,0.00,29.9,28.3,00.0,38.2,31.6,18.4,0003.3,0028.38,0008.52,0006.50
2023-05-09 21:39:00,,0827.3,4.99,0.00,29.9,28.5,00.0,38.2,31.6,18.3,0003.4,0027.46,0008.60,0006.51
2023-05-09 21:40:00,,0827.4,4.99,0.00,29.9,28.6,00.0,38.2,31.7,18.3,0003.4,0028.09,0008.59,0006.48
2023-05-09 21:41:00,,0827.3,5.00,0.00,30.0,28.6,00.0,38.2,31.7,18.2,0003.8,0028.33,0008.64,0006.49
2023-05-09 21:42:00,,0827.3,5.00,0.00,30.0,27.6,00.0,38.2,31.6,18.2,0003.9,0028.44,0008.68,0006.51
2023-05-09 21:43:00,,0827.2,5.00,0.00,29.9,26.3,00.0,38.1,31.3,18.2,0004.1,0028.71,0008.62,0006.51
2023-05-09 21:44:00,,0827.2,5.00,0.00,29.8,26.2,00.0,38.1,31.2,18.3,0004.6,0027.70,0008.55,0006.52
2023-05-09 21:45:00,,0827.2,5.01,0.00,29.8,26.4,00.0,38.1,31.2,18.3,0005.0,0025.18,0008.56,0006.52
2023-05-09 21:46:00,,0827.2,4.99,0.00,29.7,26.7,00.0,38.1,31.2,18.3,0005.2,0025.58,0008.61,0006.55
2023-05-09 21:47:00,,0827.2,5.00,0.00,29.7,27.0,00.0,38.1,31.3,18.3,0005.0,0024.76,0008.61,0006.60
2023-05-09 21:48:00,,0827.2,5.01,0.00,29.7,27.3,00.0,38.1,31.3,18.2,0005.4,0024.32,0008.66,0006.67
2023-05-09 21:49:00,,0827.2,5.01,0.00,29.7,27.6,00.0,38.1,31.4,18.2,0005.6,0027.49,0008.81,0006.73
2023-05-09 21:50:00,,0827.2,4.98,0.00,29.7,27.8,00.0,38.1,31.4,18.0,0005.5,0028.51,0008.87,0006.76
2023-05-09 21:51:00,,0827.2,5.00,0.00,29.8,28.0,00.0,38.1,31.5,18.2,0005.6,0027.74,0008.86,0006.80
2023-05-09 21:52:00,,0827.2,5.01,0.00,29.8,28.1,00.0,38.1,31.5,18.6,0005.6,0027.78,0008.83,0006.78
2023-05-09 21:53:00,,0827.2,5.00,0.00,29.8,28.3,00.0,38.1,31.5,18.4,0005.2,0027.95,0008.83,0006.76
2023-05-09 21:54:00,,0827.3,4.99,0.00,29.8,28.4,00.0,38.1,31.6,18.5,0004.6,0028.74,0008.80,0006.71
2023-05-09 21:55:00,,0827.2,5.00,0.00,29.9,28.5,00.0,38.2,31.6,18.4,0004.1,0029.42,0008.80,0006.66
2023-05-09 21:56:00,,0827.2,5.02,0.00,29.9,28.5,00.0,38.2,31.7,18.2,0003.5,0030.40,0008.77,0006.64
2023-05-09 21:57:00,,0827.2,4.98,0.00,29.9,28.3,00.0,38.2,31.6,18.3,0003.3,0029.46,0008.71,0006.61
2023-05-09 21:58:00,,0827.1,5.00,0.00,29.9,26.7,00.0,38.1,31.4,18.2,0003.1,0029.93,0008.70,0006.59
2023-05-09 21:59:00,,0827.1,5.00,0.00,29.8,26.1,00.0,38.0,31.2,18.3,0002.4,0030.23,0008.70,0006.54
